Flag for U.S.A. Weather past 2 weeks in Annapolis, Maryland, U.S.A.

Now
50 °F

Sunny.


Feels Like: 50 °F
Forecast: 44 / 64 °F
Wind: No wind

Location: Annapolis - United States Naval Academy


UV Index: 5 (Moderate)

Visibility: 9 mi


Pressure: 30.31 "Hg

Humidity: 74%

Dew point: 42 °F

Location of AnnapolisLocation

Historic Weather in Annapolis

°F

Annapolis temperature yesterday

Maximum temperature yesterday: 51 °F (at 4:54 PM)
Minimum temperature yesterday: 40 °F (at 5:54 AM)
Average temperature yesterday: 45 °F

Past Weeks' High & Low Weather Summary

 TemperatureHumidityPressure
High74 °F (Apr 11, 3:54 PM)100% (Apr 7, 7:54 PM)30.68 "Hg (Apr 7, 7:54 PM)
Low35 °F (Apr 16, 5:54 AM)27% (Apr 9, 5:54 PM)29.48 "Hg (Apr 8, 6:54 AM)
Average52 °F67%30.06 "Hg
* Reported Apr 4 7:54 AM — Apr 19 7:54 AM, Annapolis, Weather by CustomWeather, © 2014

Note: Actual official high and low records may vary slightly from our data, if they occured in-between our weather recording intervals... More about our weather records

Advertising

Historic Weather Conditions — Data for Previous 24 hours

 ConditionsComfort  
Time TempWeatherWind HumidityBarometerVisibility
7:54 AM
Apr 19
46 °FSunny.3 mph86%30.31 "Hg8 mi
6:54 AM44 °FClear.No wind89%30.27 "Hg10 mi
5:54 AM44 °FClear.No wind85%30.26 "Hg10 mi
4:54 AM46 °FClear.No wind79%30.24 "Hg10 mi
3:54 AM45 °FClear.No wind82%30.24 "Hg10 mi
2:54 AM45 °FClear.No wind80%30.25 "Hg10 mi
1:54 AM46 °FClear.No wind79%30.27 "Hg10 mi
12:54 AM47 °FClear.3 mph74%30.29 "Hg10 mi
11:54 PM
Apr 18
48 °FClear.No wind71%30.28 "Hg10 mi
10:54 PM48 °FClear.No wind74%30.30 "Hg10 mi
9:54 PM49 °FClear.No wind61%30.32 "Hg10 mi
8:54 PM49 °FClear.No wind59%30.32 "Hg10 mi
7:54 PM50 °FSunny.3 mph61%30.30 "Hg10 mi
6:54 PM51 °FSunny.No wind52%30.31 "Hg10 mi
5:54 PM51 °FSunny.No wind50%30.32 "Hg10 mi
4:54 PM51 °FSunny.No wind54%30.37 "Hg10 mi
3:54 PM48 °FSunny.3 mph61%30.38 "Hg10 mi
2:54 PM47 °FSunny.No wind61%30.41 "Hg10 mi
1:54 PM46 °FSunny.5 mph63%30.44 "Hg10 mi
12:54 PM45 °FSunny.7 mph65%30.47 "Hg10 mi
11:54 AM43 °FOvercast.5 mph68%30.50 "Hg10 mi
10:54 AM42 °FOvercast.5 mph68%30.50 "Hg10 mi
9:54 AM41 °FOvercast.9 mph74%30.52 "Hg10 mi
Weather by CustomWeather, © 2014

See weather overview